Showing default

IRIDIUM 131, 43079

Orbit data source: Space-Track

IRIDIUM 131, 43079 is a payload satellite owned by Iridium (US) in LEO that was launched on Sat, 23 Dec 2017 UTC via an FALCON 9 launch vehicle from the Air Force Western Test Range (AFWTR). Payload-class satellites include a variety of spacecraft equipped with specific instruments for various scientific and technological missions. These include communications satellites like Starlink; space stations such as the ISS; scientific satellites like the Hubble; Earth observation satellites from companies like Planet Labs, Umbra, and HawkEye 360; GPS; miniature CubeSats for education and research; and military/defense satellites.

Loading next visibility...
Identifier
43079, 2017-083K
Orbit
LEO
Country
Flag of USUS
Related business
Manufacturer
OATK SSG Gilbert
Mission
Operational Commercial Communications
Bus & Motor
ELITEBUS, Unknown motor
Mass
860 kg wet, 700 kg dry
Launch date (UTC)
2017-12-23 (9 years ago)
Launch vehicle
FALCON 9
Launch site
Air Force Western Test Range (AFWTR)
Object type
Payload
Rocket body
Debris
Shape & HBR
Trap Box + 2 Pan, 4.8 m
Radar Cross Section
10.154 m², Large (>1 m²)

Expand to show TLE details & history
Last TLE update: 22 hours ago

TLE from 22 hours ago
0 IRIDIUM 131
1 43079U 17083K   26253.58628579  .00000154  00000-0  47808-4 0  9991
2 43079  86.3929 286.4816 0002260  93.9553 266.1901 14.34218786456342
Epoch: 2026-09-10T14:04Z
TLE epoch observation values (Epoch: 2026-09-10T14:04:15.092Z)
Latitude
-0.00003°
Longitude
85.79685°
Altitude
780.822 km
Speed
7.463 km/s
True Right ascension
19h 05m 55s
True Declination
0° 00' 00"
Sunlit
Object was in full shadow at epoch
Visualization orbit readout
Latitude
Unknown
Longitude
Unknown
Altitude
Unknown
Speed
Unknown
Apparent Right ascension
Unknown
Apparent Declination
Unknown
Sunlit
N/A
Visualization observer readout
Local Sidereal Time
04:36:28
Azimuth
Unknown
Elevation
Unknown
Doppler factor
Unknown
Orbital elements
Apogee altitude
776.245 km
Perigee altitude
773.012 km
Semi-major axis
7,152.765 km
Eccentricity
0.00023
Inclination
86.3929°
RAAN
286.4816°
Arg. of periapsis
93.9553°
True anomaly
266.16426°
Mean anomaly
266.1901°
Eccentric anomaly
266.17718°
Mean motion
3.58783 °/min
Orbital period
100.34 mins
BSTAR
0.000047808
Loading maneuver chart data...
Computing Atmospheric mass density...
Loading historical data...
Loading historical data...
Loading historical data...
Loading historical data...
Loading historical data...
Loading historical data...
Loading historical data...

Documentation

Showing up to 5 results
|